GFSFLT1_700_spd_000.txt.gz
Wind_Speed
11 10 9 10 13 13 17 26 23 21 22 17 17 14 14 15 16 22 28 30 31 34 36 39 43 43 46 49 49 51 53 53
16 16 13 12 12 13 15 17 18 20 17 18 18 18 17 18 24 25 30 31 35 36 38 41 45 47 50 53 55 53 50 51
16 14 14 13 13 11 13 15 16 14 16 15 15 19 23 25 26 29 34 33 36 40 44 47 49 52 55 54 51 51 50 50
4 6 6 8 12 14 15 15 18 19 18 20 21 21 21 24 29 33 37 40 42 46 51 51 54 51 50 48 50 51 50 52
5 4 5 12 17 15 16 19 18 17 16 21 23 25 29 32 37 43 47 50 51 53 55 53 49 48 48 52 55 58 55 45
5 5 13 18 12 8 13 13 14 20 23 29 31 34 38 42 46 48 50 52 54 53 51 50 51 53 55 54 50 48 47 46
8 3 9 7 11 13 13 14 19 23 30 35 38 40 42 46 50 48 52 51 50 49 49 49 47 47 47 43 47 50 37 41
10 15 18 10 15 16 19 23 25 30 36 38 41 43 45 46 48 50 50 50 49 48 48 48 50 50 46 43 48 42 44 42
18 14 16 17 19 19 21 25 28 33 39 45 45 45 46 48 49 49 49 49 48 49 51 51 49 45 39 48 48 45 44 36
19 19 21 22 23 23 23 23 28 35 43 45 44 46 47 48 49 48 46 47 48 48 48 45 33 41 37 39 31 36 36 36
20 22 24 25 27 25 27 28 32 37 42 44 44 43 44 45 44 44 44 44 44 45 44 34 37 36 34 33 35 32 32 33
23 26 26 29 28 28 31 34 36 41 42 42 42 43 43 43 42 43 43 44 43 43 42 39 39 39 39 33 27 31 34 34
26 29 30 28 29 30 32 37 41 39 39 40 42 44 45 45 45 46 46 44 42 39 38 35 32 27 30 27 30 31 32 32
26 28 26 29 31 35 37 39 33 36 39 42 44 45 46 47 48 48 46 43 40 36 33 30 26 25 25 29 31 33 32 31
25 26 27 30 37 39 32 31 35 38 41 43 45 46 48 49 49 47 44 41 38 34 30 25 22 26 25 30 31 32 30 31
26 27 32 39 40 34 34 35 37 40 41 44 46 47 48 49 48 45 43 39 34 30 26 21 19 25 27 30 32 33 33 35
27 33 38 39 34 36 34 36 38 40 43 45 46 48 49 48 46 44 41 36 32 27 25 21 25 26 29 31 34 35 35 38
31 37 37 34 35 33 34 37 39 41 44 46 49 49 48 46 44 42 37 33 28 26 21 24 27 30 29 34 36 34 36 37
33 34 34 35 32 33 35 38 41 44 46 48 49 48 46 44 41 38 34 30 27 22 22 25 28 30 33 35 32 34 34 35

GFSFLT1_700_spd_003.txt.gz
Wind_Speed
8 9 7 7 8 11 15 18 19 15 14 7 11 10 10 14 17 21 23 29 31 34 36 36 37 40 42 47 49 52 54 54
12 12 11 11 10 11 13 11 14 15 10 13 13 12 15 17 20 23 25 27 30 32 35 39 43 47 49 50 50 48 49 50
8 6 7 10 9 8 11 12 10 10 14 18 19 15 14 17 20 25 30 34 38 41 43 46 48 49 49 48 48 49 51 54
6 3 5 6 7 6 6 9 15 18 16 15 17 21 22 25 28 32 36 40 43 44 45 47 46 47 49 50 52 53 54 56
5 6 6 6 7 8 11 13 12 11 11 15 21 25 29 32 35 38 41 43 44 45 45 45 46 48 49 48 48 49 50 49
8 6 4 10 17 11 10 8 7 11 17 21 25 30 34 37 38 41 43 44 44 43 43 43 43 44 44 44 44 42 41 40
7 5 8 12 11 10 14 14 13 16 18 25 30 35 38 39 41 43 43 43 42 43 43 43 43 43 43 42 40 36 43 46
9 5 9 10 9 12 16 17 18 19 23 29 34 38 41 43 44 44 44 43 42 42 44 44 44 43 42 41 40 46 43 41
9 10 6 11 15 18 19 21 23 23 27 33 38 43 45 44 44 44 43 43 43 43 42 43 43 42 40 35 45 38 36 36
11 13 13 18 18 20 23 25 27 28 34 37 43 44 42 43 41 41 41 41 41 41 41 41 40 37 35 37 39 35 33 31
15 15 19 22 23 24 28 32 28 33 39 42 39 39 39 39 40 41 41 41 42 41 39 37 35 34 31 30 28 31 30 31
18 20 24 27 29 29 35 35 34 38 40 39 37 37 39 42 42 43 44 44 43 40 38 34 31 29 28 28 30 30 31 31
23 26 29 32 31 35 37 36 39 42 35 35 37 40 42 44 45 46 45 44 43 40 35 31 27 26 23 25 28 32 32 33
27 27 28 31 31 33 36 38 42 32 34 36 39 42 44 45 46 47 46 44 41 38 34 30 25 22 22 25 28 33 32 33
29 28 28 27 30 34 36 40 35 33 35 37 40 43 44 47 47 47 45 43 41 37 32 26 23 22 21 28 30 31 34 34
28 26 24 28 32 38 36 37 34 33 34 38 41 43 45 47 46 44 43 41 39 34 29 24 24 20 26 29 31 33 33 33
26 24 26 28 35 34 34 35 32 33 35 39 42 45 46 47 45 43 41 39 37 32 28 25 22 25 24 32 33 34 35 33
23 22 24 29 33 34 34 31 31 34 37 40 43 46 47 46 43 42 40 37 34 31 27 25 24 28 29 31 33 33 32 33
22 24 28 32 34 34 30 29 32 35 39 42 45 47 47 44 41 41 38 35 32 29 27 26 26 26 27 28 29 30 32 31

GFSFLT1_700_spd_006.txt.gz
Wind_Speed
11 10 11 15 16 14 15 15 15 8 7 3 3 5 7 10 12 15 18 20 22 26 31 35 38 41 42 43 46 47 47 50
14 13 14 15 14 14 13 8 9 6 3 5 2 4 9 13 15 17 19 23 28 31 35 38 38 42 43 45 44 44 47 50
16 17 17 17 16 11 6 8 5 3 4 4 7 12 15 17 19 22 25 29 33 36 38 40 42 42 44 45 45 45 45 52
14 13 13 13 10 4 4 3 0 2 6 9 12 14 17 21 25 29 32 34 36 38 40 41 42 43 43 44 46 46 46 47
15 12 15 12 5 7 4 7 6 8 11 12 14 18 23 26 30 33 36 38 39 39 40 40 41 40 41 43 44 44 47 45
12 18 11 2 4 3 7 11 12 10 10 13 19 24 27 30 33 36 36 37 39 40 40 41 40 40 41 41 44 45 44 44
21 15 7 2 4 5 8 10 11 13 17 21 24 28 30 34 40 39 39 40 39 39 40 39 40 40 41 41 41 39 35 38
17 12 7 4 5 8 10 11 14 19 23 26 28 30 34 39 39 40 40 40 39 38 37 38 38 39 39 39 34 37 37 40
15 13 9 8 10 13 16 17 20 26 28 28 29 35 39 40 40 39 38 39 39 38 38 38 38 38 38 31 31 43 37 36
17 16 13 12 15 18 21 24 27 32 35 32 36 39 40 38 37 37 38 39 40 40 38 37 37 35 31 30 37 33 31 29
21 19 15 17 21 23 26 29 31 36 37 36 41 42 37 35 36 38 40 41 41 40 39 38 36 30 30 32 29 27 27 25
23 21 20 21 26 28 29 31 37 40 39 39 40 35 34 36 38 40 41 42 41 39 38 37 32 30 28 26 27 23 23 22
25 24 25 27 30 31 33 37 40 38 39 36 32 34 36 38 40 42 42 42 41 39 38 36 32 28 24 23 23 20 24 29
28 28 30 33 33 33 34 37 37 37 35 34 34 35 37 39 41 42 43 42 41 40 38 35 30 25 23 22 22 25 31 32
32 32 33 35 33 32 34 35 35 33 36 34 34 36 38 39 41 44 44 42 41 39 38 35 28 25 23 23 26 30 31 34
30 31 34 32 30 32 34 32 32 35 34 32 35 37 38 40 43 44 42 40 40 38 35 32 27 24 22 23 31 30 35 35
27 29 31 31 29 32 31 32 35 34 31 32 35 37 38 42 44 43 41 40 38 35 32 24 27 26 25 26 28 30 31 33
24 28 29 29 30 33 30 33 34 30 29 32 35 37 39 43 44 42 40 38 35 33 28 26 24 25 24 24 24 27 30 32
22 26 29 30 33 31 31 33 29 27 30 34 36 38 42 44 44 40 38 36 33 32 28 26 25 24 24 25 27 29 30 31

GFSFLT1_700_spd_009.txt.gz
Wind_Speed
16 15 15 15 14 15 14 15 15 16 12 11 8 8 8 8 9 12 13 16 20 24 30 30 33 37 41 43 44 44 45 46
17 17 18 18 17 18 17 16 14 13 10 7 6 6 7 8 10 14 17 21 24 26 31 35 38 40 42 44 46 47 43 43
20 19 19 19 19 18 16 13 12 10 8 7 7 8 10 11 15 18 23 25 30 33 36 37 39 40 41 43 44 45 43 43
21 22 22 23 22 19 14 11 11 10 7 7 9 12 12 15 21 26 29 30 34 36 37 38 39 40 41 42 43 45 43 44
20 20 20 18 17 14 10 10 9 7 9 12 14 10 14 22 25 29 33 38 37 36 37 38 39 39 40 40 40 45 44 45
16 17 19 17 15 10 10 8 7 10 13 15 18 19 23 28 31 34 38 38 37 37 38 38 39 39 39 41 43 40 43 44
20 21 21 18 12 9 11 12 12 12 15 19 22 25 28 28 36 38 39 37 37 38 38 38 38 38 37 37 39 40 42 38
25 26 22 18 13 12 15 16 16 17 20 23 27 30 30 31 34 38 37 38 38 38 38 38 37 36 37 37 37 36 34 35
26 25 23 20 16 17 18 20 21 23 26 30 34 33 37 36 38 37 37 37 38 40 40 39 38 36 37 36 26 25 30 27
26 26 26 24 19 19 21 24 25 27 31 33 36 37 38 40 39 36 36 38 39 40 40 40 39 37 30 24 33 29 28 31
26 27 28 25 22 22 26 28 30 31 33 38 41 41 39 36 36 36 37 39 41 41 39 37 39 37 31 28 24 28 23 25
26 29 28 27 27 26 27 32 35 35 36 40 43 41 36 35 36 36 38 40 41 40 38 37 36 34 25 25 25 22 21 27
25 30 30 30 30 30 33 36 38 37 39 43 41 37 35 35 36 38 40 40 41 40 40 40 37 30 26 25 19 19 22 23
27 33 33 33 34 35 39 40 40 39 42 41 38 36 35 35 37 39 40 41 40 41 41 39 33 31 25 19 19 21 22 26
29 35 35 36 37 39 41 41 41 40 41 36 35 36 35 36 38 39 40 41 41 42 42 37 35 25 21 18 20 23 27 29
34 38 40 41 42 43 40 42 39 39 37 33 36 36 34 36 38 38 40 41 41 41 39 32 26 25 28 25 24 26 28 31
30 32 36 39 41 40 40 39 36 40 38 33 35 32 34 36 35 38 39 41 41 38 30 27 22 22 28 26 25 24 26 29
27 29 31 33 37 38 38 37 39 44 35 37 29 31 35 34 36 38 39 39 39 32 25 24 23 23 22 26 26 26 27 30
22 26 30 35 37 39 37 39 42 43 43 37 29 31 34 34 36 38 38 35 30 27 24 24 24 27 25 27 26 27 29 31

GFSFLT1_700_spd_012.txt.gz
Wind_Speed
10 9 11 10 6 7 9 11 11 12 13 13 8 10 9 10 10 11 13 13 17 22 27 28 30 33 36 38 39 41 41 43
16 13 14 15 12 13 15 16 13 14 16 13 12 10 10 9 10 10 12 17 21 24 26 32 35 36 37 38 39 41 42 42
18 17 18 19 20 18 18 18 15 13 15 14 14 11 11 13 13 16 18 23 27 31 35 34 35 37 37 38 39 41 42 42
23 23 24 24 23 22 21 19 13 16 12 11 13 14 18 19 18 19 25 27 30 34 36 37 36 35 36 37 38 41 43 42
26 24 26 28 27 24 21 20 17 11 17 14 14 19 22 20 23 25 28 32 33 35 35 34 34 36 37 38 38 39 40 42
25 21 21 24 24 20 25 23 16 16 15 15 18 18 23 25 26 28 29 31 35 34 33 33 35 36 37 37 38 39 39 39
24 23 18 23 23 26 24 20 18 17 18 18 18 22 28 28 31 33 34 37 35 33 33 36 37 37 37 36 37 39 41 42
18 20 18 25 27 22 20 21 20 19 19 19 22 25 30 32 34 37 42 38 35 35 36 38 39 38 37 37 38 41 36 33
26 29 32 28 24 22 21 23 22 23 22 23 26 29 32 36 36 39 42 38 35 36 39 40 41 39 40 39 40 37 33 29
22 26 27 27 27 25 24 25 28 26 27 29 31 31 35 38 40 42 37 35 35 38 40 40 40 42 43 42 38 33 30 27
23 28 29 29 29 29 28 28 32 31 31 34 35 36 37 39 42 38 37 34 36 39 40 40 38 39 42 40 37 31 31 28
23 27 30 32 33 32 30 32 35 34 34 36 39 39 41 42 39 39 35 34 37 39 40 39 38 38 37 33 31 28 25 21
24 26 28 34 35 33 32 34 38 38 38 39 41 42 45 40 40 37 35 36 39 39 38 38 39 39 37 31 27 26 21 26
25 29 31 37 37 36 36 35 39 41 41 42 43 45 45 42 34 34 34 38 38 38 37 39 38 34 33 28 25 25 23 26
27 30 35 41 43 39 38 39 40 42 44 40 45 48 45 38 35 31 33 37 38 38 38 38 36 32 28 27 24 25 25 28
25 31 35 40 46 45 42 41 42 42 40 39 42 43 44 35 32 33 32 35 37 37 38 36 35 32 23 25 26 28 29 29
26 31 35 41 47 45 39 39 41 41 37 40 45 45 44 40 37 31 30 34 36 38 37 34 33 33 23 25 25 28 29 30
21 28 32 34 35 36 36 38 40 41 37 42 44 50 46 32 27 27 30 34 37 38 36 34 34 33 29 24 23 27 29 30
21 22 23 28 31 35 36 37 41 42 40 41 51 49 39 36 26 28 31 34 34 33 33 32 36 34 33 28 26 29 29 30

GFSFLT1_700_spd_015.txt.gz
Wind_Speed
8 7 6 8 7 7 6 7 8 9 10 9 11 9 9 6 10 9 11 11 14 16 18 21 24 27 30 33 34 31 31 33
7 9 6 6 7 7 10 11 11 13 13 15 14 13 9 9 10 11 11 13 16 20 24 25 28 31 32 31 31 32 33 33
14 15 12 9 9 10 14 14 16 18 21 15 13 11 11 14 13 11 11 16 20 21 21 28 30 29 28 29 32 33 34 35
16 18 19 16 15 18 19 19 19 23 22 16 17 15 15 14 15 15 18 21 24 26 32 32 31 29 29 31 32 34 35 35
25 19 24 25 25 25 24 21 22 21 18 17 18 18 19 19 22 20 24 28 29 35 37 37 33 30 32 33 34 35 35 36
29 25 29 30 30 26 25 25 27 18 19 18 17 19 19 21 24 26 28 31 33 39 35 37 31 31 32 34 35 34 35 37
29 31 32 28 29 27 29 31 26 18 20 18 18 20 20 23 26 29 32 34 37 40 36 35 32 32 33 34 35 36 38 39
34 36 37 29 25 31 33 31 22 19 21 20 21 22 24 25 29 32 34 36 41 39 35 35 32 32 35 34 35 37 40 38
39 37 31 30 25 20 21 24 21 21 22 24 25 27 30 32 33 36 36 37 41 37 38 36 35 36 37 36 36 37 38 36
30 28 31 30 25 23 23 25 25 23 24 27 29 32 34 37 38 40 42 44 36 34 35 35 34 37 38 38 37 38 36 36
23 27 30 30 27 26 30 32 31 28 26 30 33 36 37 40 43 44 45 50 39 34 35 33 32 35 37 38 38 37 34 34
17 20 23 25 27 28 31 37 37 34 31 32 35 38 39 42 45 46 47 46 42 35 34 33 34 34 35 33 32 31 31 31
24 24 24 24 26 26 26 31 35 36 37 38 40 41 41 44 48 49 49 42 37 35 33 33 34 35 35 34 31 28 29 26
25 28 31 30 29 31 33 33 35 39 42 43 44 43 43 46 47 50 47 39 38 36 33 31 33 34 31 33 30 29 28 26
24 28 31 33 35 36 38 39 42 45 45 44 44 42 44 47 49 45 42 36 38 27 27 30 33 37 35 31 28 28 29 28
17 28 30 32 35 38 38 40 43 46 45 42 41 42 45 47 42 42 40 38 26 25 27 29 33 37 37 28 26 28 28 27
19 18 25 30 33 36 40 41 42 43 41 39 39 43 46 47 47 47 41 37 21 24 25 29 34 37 36 31 28 29 28 29
17 18 25 31 35 37 37 37 38 39 40 40 42 44 47 53 54 45 34 33 24 23 28 33 35 38 36 32 30 32 31 31
22 22 20 26 29 31 31 31 34 39 42 44 47 49 51 54 53 35 34 21 22 26 31 33 37 38 35 33 34 36 34 32

GFSFLT1_700_spd_018.txt.gz
Wind_Speed
6 9 11 8 9 7 6 5 6 6 5 7 7 8 8 10 10 12 13 13 14 14 16 18 17 20 25 26 27 27 27 27
7 6 11 13 12 11 10 10 10 10 9 10 9 8 11 12 10 12 13 14 16 15 20 18 20 25 30 28 27 26 28 29
12 10 10 13 11 12 14 15 15 14 14 15 12 12 14 12 11 11 12 16 18 18 22 24 30 31 31 30 27 28 29 30
13 10 10 14 16 17 17 15 15 19 22 20 15 17 14 12 12 13 13 15 16 21 25 31 32 31 34 32 30 30 31 33
18 16 14 16 15 18 19 19 20 22 25 23 17 16 14 11 12 13 17 19 22 26 29 34 34 33 33 34 35 33 33 34
21 20 20 20 20 22 24 27 23 25 23 20 17 17 15 15 15 18 21 24 26 29 32 37 37 35 33 34 37 37 36 37
24 23 23 24 23 23 23 29 25 27 27 17 20 18 18 19 21 25 29 31 33 35 37 39 41 38 37 35 37 37 38 38
27 28 28 28 26 25 31 30 27 29 29 20 21 22 24 27 30 33 35 36 39 40 42 45 50 39 38 36 40 38 36 37
24 25 29 28 27 28 35 24 27 28 29 22 25 28 30 33 35 37 39 41 43 47 47 44 54 38 41 40 39 37 37 37
25 25 31 31 32 33 23 23 25 25 25 26 28 32 36 37 38 42 42 45 45 48 52 49 43 39 41 39 37 36 36 36
20 22 25 27 27 29 28 28 24 24 27 30 32 36 39 41 43 45 45 47 49 52 52 53 42 39 35 40 34 36 36 33
14 13 11 13 19 25 25 26 24 27 30 32 35 39 41 44 45 48 49 49 51 56 54 50 43 41 32 30 31 30 31 31
14 17 17 16 17 19 21 21 20 20 20 23 29 34 37 39 43 47 49 51 52 56 55 48 43 28 25 26 29 35 33 30
19 21 21 23 24 24 27 28 28 28 30 31 33 38 40 37 40 44 47 49 53 54 54 46 41 35 31 33 29 30 32 31
22 23 24 26 28 29 30 31 33 33 35 35 38 39 37 39 42 43 46 50 51 51 49 39 39 33 26 26 27 27 29 30
16 21 25 28 32 34 34 37 38 37 37 37 36 36 38 41 45 47 52 54 53 52 42 40 30 22 27 29 30 29 29 31
11 17 21 22 25 34 34 36 35 32 32 34 33 36 39 45 50 53 58 60 58 42 37 32 23 27 30 33 34 32 30 33
16 19 24 27 26 22 23 27 26 29 31 33 35 40 44 47 52 56 62 58 43 37 33 22 24 28 32 35 35 34 31 34
18 21 22 24 26 25 26 28 29 32 34 37 40 45 48 50 55 59 61 41 35 31 19 21 25 30 33 32 33 32 33 33